Regional Weather Roundup
Issued by NWS

Home | Current Version | Previous Version | Text Only | Print | Product List | Glossary On
Versions: 1 2 3 4 5 6 7 8 9 10 11 12 13 14 15 16 17 18 19 20 21 22 23 24 25 26 27 28 29 30 31 32 33 34 35 36 37 38 39 40 41 42 43 44 45 46 47 48 49 50
000
ASUS43 KLMK 061810
RWRKY
KENTUCKY REGIONAL WEATHER ROUNDUP
NATIONAL WEATHER SERVICE LOUISVILLE KY
200 PM EDT FRI MAY 06 2016

NOTE "FAIR" INDICATES FEW OR NO CLOUDS BELOW 12,000 FEET
WITH NO SIGNIFICANT WEATHER AND/OR OBSTRUCTIONS TO VISIBILITY.

KYZ001>023-026-027-061>063-070>075-061900-
WESTERN AND SOUTH CENTRAL KENTUCKY

CITY           SKY/WX    TMP DP  RH WIND       PRES   REMARKS
PADUCAH        SUNNY     72  44  36 CALM      30.05F
HENDERSON      SUNNY     70  45  40 NW6G16    30.02F
OWENSBORO      MOSUNNY   69  42  37 NW8       30.03F
HOPKINSVILLE   MOSUNNY   67  45  44 N10       30.03F
BOWLING GREEN  MOSUNNY   70  43  37 NW8G18    30.02F
GLASGOW        MOSUNNY   69  38  32 N9        30.00F
$$

KYZ024-025-028>034-038-045-046-053-061900-
NORTH CENTRAL KENTUCKY

CITY           SKY/WX    TMP DP  RH WIND       PRES   REMARKS
LOUISVILLE/SDF MOSUNNY   71  41  33 N10G23    29.98F
LOUISVILLE/LOU SUNNY     69  40  34 N9        29.99F
FORT KNOX      SUNNY     68  43  41 NW14      29.98F
$$

KYZ035>037-039>044-047>052-055>060-089>105-061900-
NORTHEAST KENTUCKY

CITY           SKY/WX    TMP DP  RH WIND       PRES   REMARKS
LEXINGTON      MOSUNNY   66  42  41 NW15G25   29.96F
COVINGTON      PTSUNNY   67  44  43 NW13G20   29.96F
FRANKFORT      PTSUNNY   68  42  38 NW8       29.96F
$$

KYZ054-064>069-076>088-106>120-061900-
SOUTHEAST KENTUCKY

CITY           SKY/WX    TMP DP  RH WIND       PRES   REMARKS
JACKSON        CLOUDY    64  43  46 VRB5      29.94S
LONDON         PTSUNNY   64  38  38 N12G20    29.95F
SOMERSET       PTSUNNY   63  41  45 N13G18    29.98F
MIDDLESBORO    CLOUDY    64  44  47 N13G18    29.95F
MONTICELLO     CLOUDY    64  46  52 N20       29.99F
$$





USA.gov is the U.S. government's official web portal to all federal, state and local government web resources and services.